Regional Weather Roundup
Issued by NWS Wilmington, NC

Home | Current Version | Previous Version | Text Only | Print | Product List | Glossary On
Versions: 1 2 3 4 5 6 7 8 9 10 11 12 13 14 15 16 17 18 19 20 21 22 23 24 25 26 27 28 29 30 31 32 33 34 35 36 37 38 39 40 41 42 43 44 45 46 47 48 49 50
000
ASUS42 KILM 020313
RWRILM
RWRILM
REGIONAL HOURLY WEATHER ROUNDUP
NATIONAL WEATHER SERVICE WILMINGTON NC
1100 PM EDT WED JUL 01 2015

NOTE: "FAIR" INDICATES FEW OR NO CLOUDS BELOW 12,000 FEET WITH NO
SIGNIFICANT WEATHER AND/OR OBSTRUCTIONS TO VISIBILITY.

...............WFO WILMINGTON COUNTY WARNING AREA...............

......COASTAL NC AND SC COUNTIES......

CITY           SKY/WX    TMP DP  RH WIND       PRES   REMARKS
WILMINGTON     CLEAR     79  72  79 SW8       29.99R
N MYRTLE BEACH PTCLDY    81  71  71 SW8       30.00R
MYRTLE BEACH   CLEAR     81  70  69 SW6       30.03R

......INLAND NC AND SC COUNTIES.......

CITY           SKY/WX    TMP DP  RH WIND       PRES   REMARKS
LUMBERTON      CLEAR     77  72  84 S5        29.98R
ELIZABETHTOWN  MOCLDY    77  72  84 SW3       29.99R
WHITEVILLE     PTCLDY    76  71  83 SW5       29.99R
FLORENCE       PTCLDY    78  72  81 SW7       29.99R
DARLINGTON     PTCLDY    75  70  83 S6        29.99F

....................REST OF NORTH CAROLINA......................

.........EASTERN NC.........

CITY           SKY/WX    TMP DP  RH WIND       PRES   REMARKS
CAPE HATTERAS  PTCLDY    78  75  90 SW12      29.97R
JACKSONVILLE   PTCLDY    73  66  78 SW5       29.98S
MOREHEAD CITY  MOCLDY    79  76  90 SW10      29.97S
KENANSVILLE    MOCLDY    73  71  94 CALM      29.98S
NEW BERN       PTCLDY    75  72  90 SW5       29.98S
ELIZABETH CITY MOCLDY    76  72  87 SW8       29.93S

.........CENTRAL NC.........

CITY           SKY/WX    TMP DP  RH WIND       PRES   REMARKS
RALEIGH DURHAM CLOUDY    78  70  76 SW14      29.96R
ROCKY MOUNT    MOCLDY    78  71  79 SW9       29.95S
ROANOKE RAPIDS NOT AVBL
FAYETTEVILLE   PTCLDY    77  71  82 SW8       29.96R
HOFFMAN        MOCLDY    77  71  81 SW6       30.00S

.........WESTERN NC.........

CITY           SKY/WX    TMP DP  RH WIND       PRES   REMARKS
CHARLOTTE      CLOUDY    76  69  79 SW5       29.98S
GREENSBORO     CLOUDY    72  67  84 SW5       29.97R
HICKORY        NOT AVBL
BOONE          NOT AVBL
ASHEVILLE      NOT AVBL

.....................REST OF SOUTH CAROLINA.....................

.........EASTERN SC.........

CITY           SKY/WX    TMP DP  RH WIND       PRES   REMARKS
CHARLESTON     MOCLDY    79  72  79 SW5       30.04R
BEAUFORT MCAS  PTCLDY    81  73  76 CALM      30.04R
HILTON HEAD    MOCLDY    81  72  74 CALM      30.05R

.........CENTRAL SC.........

CITY           SKY/WX    TMP DP  RH WIND       PRES   REMARKS
COLUMBIA       MOCLDY    80  69  69 W5        29.99F
ORANGEBURG     CLEAR     76  71  85 S6        30.03R
SUMTER SHAW    PTCLDY    76  71  84 S3        29.99R

.........WESTERN SC.........

CITY           SKY/WX    TMP DP  RH WIND       PRES   REMARKS
GREENVILLE     NOT AVBL
ROCK HILL      CLOUDY    78  68  71 SW7       29.99S
ANDERSON       CLOUDY    70  68  93 SW3       30.02F
CLEMSON        NOT AVBL
GREENWOOD      LGT RAIN  70  67  90 W5        30.04S


...................COASTAL AND OFFSHORE REPORTS..................

................LOCAL PIERS AND NC RESERVE................


STATION/POSITION TIME  SKY/WX   TEMP    WIND        PRES    VSBY
                                AIR SEA DIR/SP/G
                 (UTC)          (F)     (DEG/KT/KT) (MB)    (MI)
JOHNY MRCER PIER 0200            80 81  240/  7/  9 1014.9R
NC RESRV MASNBRO NOT AVBL
OCEAN CREST PIER NOT AVBL
SPRINGMAID  PIER 0200            81 83  210/  8/ 10 1015.7R


................COASTAL AND OFFSHORE BUOYS................


STATION/POSITION TIME  SKY/WX   TEMP    WIND        PRES    VSBY
                                AIR SEA DIR/SP/G
                 (UTC)          (F)     (DEG/KT/KT) (MB)    (MI)
DIMNDSHOAL 41025 0250            80 83  240/ 19/ 21 1014.6R
WVE H/P(F/S)=  5/ 8 WND WVE H/P(F/S)=  3/ 6 SWL H/P/D(F/S/D)=  3/170/ 8

CAPE LOOKOUT     0300            79     230/ 10/ 13 1014.8R
ONSLOW BAY 41036 NOT AVBL
5 WRITEBCH 41038 0208            80 80  240/ 10/ 14 1015.2R
MASONBORO  41110 0219               80                N/A
WVE H/P(F/S)=  3/ 8 WND WVE H/P(F/S)=  3/ 8

WILM HARBR 41108 0211               81                N/A
WVE H/P(F/S)=  4/ 6 WND WVE H/P(F/S)=  5/ 6

27WRITEBCH 41037 0200               80  250/ 16/ 19   N/A
FRYING PAN 41013 0250            81 80  230/ 16/ 19 1016.7R
WVE H/P(F/S)=  5/ 8 WND WVE H/P(F/S)=  5/ 6 SWL H/P/D(F/S/D)=  2/120/ 8

SUNST NRSH 41024 0208            83     240/ 10/ 14 1015.4R
CAPRS NRSH 41029 0208            82     230/ 14/ 16 1016.5R
EDISTO     41004 0250            83 82  210/ 14/ 16 1016.5R
WVE H/P(F/S)=  4/ 6 WND WVE H/P(F/S)=  3/ 6 SWL H/P/D(F/S/D)=  2/ 8



..........OFFSHORE BUOYS BEYOND 100 NM OFFSHORE...........
.....IN A TRIANGLE---HAT TO BERMUDA TO BAHAMAS TO HAT.....


STATION/POSITION TIME  SKY/WX   TEMP    WIND        PRES    VSBY
                                AIR SEA DIR/SP/G
                 (UTC)          (F)     (DEG/KT/KT) (MB)    (MI)
150E HAT   41001 NOT AVBL
W BERMUDA  41048 0250            81 80  180/ 12/ 16 1021.8S
WVE H/P(F/S)=  5/ 7 WND WVE H/P(F/S)=  3/ 6 SWL H/P/D(F/S/D)=  3/220/ 7

ATLANTIC S 41049 0250            82 83   80/ 10/ 12 1024.4F
WVE H/P(F/S)=  4/ 8 WND WVE H/P(F/S)=  2/ 4 SWL H/P/D(F/S/D)=  3/120/ 8

E BAHAMAS  41046 0250            82 83   90/ 16/ 17 1021.7S
WVE H/P(F/S)=  5/ 9 WND WVE H/P(F/S)=  3/ 6 SWL H/P/D(F/S/D)=  3/120/ 9

NE BAHAMAS 41047 0250            82 84  140/ 12/ 12 1022.1S
WVE H/P(F/S)=  5/ 8 WND WVE H/P(F/S)=  2/ 5 SWL H/P/D(F/S/D)=  3/120/ 8

120E CANVRL41010 0220            84 84  190/ 10/ 12 1020.4R

END



USA.gov is the U.S. government's official web portal to all federal, state and local government web resources and services.